Time,TemperatureF,DewpointF,PressureIn,WindDirection,WindDirectionDegrees,WindSpeedMPH,WindSpeedGustMPH,Humidity,HourlyPrecipIn,Conditions,Clouds,dailyrainin,SoftwareType,DateUTC
2013-03-06 00:14:00,25.7,24.0,30.33,NNW,342,7.0,13.0,91,0.00,,,0.01,weatherlink.com 1.10,2013-03-06 06:14:00,
2013-03-06 00:29:00,25.2,23.0,30.33,NNW,344,8.0,13.0,91,0.00,,,0.01,weatherlink.com 1.10,2013-03-06 06:29:00,
2013-03-06 00:44:00,24.7,23.0,30.33,North,355,6.0,13.0,91,0.00,,,0.01,weatherlink.com 1.10,2013-03-06 06:44:00,
2013-03-06 00:59:00,24.4,22.0,30.34,WNW,289,5.0,10.0,91,0.00,,,0.01,weatherlink.com 1.10,2013-03-06 06:59:00,
2013-03-06 01:14:00,24.3,22.0,30.35,WNW,284,8.0,12.0,90,0.00,,,0.01,weatherlink.com 1.10,2013-03-06 07:14:00,
2013-03-06 01:29:00,24.5,22.0,30.36,WNW,296,7.0,11.0,91,0.00,,,0.01,weatherlink.com 1.10,2013-03-06 07:29:00,
2013-03-06 01:44:00,25.2,23.0,30.37,NNW,337,6.0,13.0,90,0.00,,,0.01,weatherlink.com 1.10,2013-03-06 07:44:00,
2013-03-06 01:59:00,25.7,23.0,30.37,West,273,9.0,15.0,90,0.00,,,0.01,weatherlink.com 1.10,2013-03-06 07:59:00,
2013-03-06 02:14:00,25.7,23.0,30.37,NW,304,8.0,15.0,89,0.00,,,0.01,weatherlink.com 1.10,2013-03-06 08:14:00,
2013-03-06 02:29:00,25.6,23.0,30.38,NW,316,0.0,14.0,89,0.00,,,0.01,weatherlink.com 1.10,2013-03-06 08:29:00,
2013-03-06 02:44:00,25.7,23.0,30.38,WNW,300,10.0,18.0,88,0.00,,,0.01,weatherlink.com 1.10,2013-03-06 08:44:00,
2013-03-06 02:59:00,25.7,23.0,30.38,NNW,327,11.0,21.0,88,0.00,,,0.01,weatherlink.com 1.10,2013-03-06 08:59:00,
2013-03-06 03:14:00,25.5,23.0,30.39,SW,231,5.0,18.0,88,0.00,,,0.01,weatherlink.com 1.10,2013-03-06 09:14:00,
2013-03-06 03:29:00,25.5,23.0,30.40,NW,309,10.0,16.0,88,0.00,,,0.01,weatherlink.com 1.10,2013-03-06 09:29:00,
2013-03-06 03:44:00,25.4,22.0,30.40,NW,308,3.0,13.0,88,0.00,,,0.01,weatherlink.com 1.10,2013-03-06 09:44:00,
2013-03-06 03:59:00,25.4,22.0,30.40,WNW,297,10.0,15.0,87,0.00,,,0.01,weatherlink.com 1.10,2013-03-06 09:59:00,
2013-03-06 04:14:00,25.3,22.0,30.41,WNW,285,14.0,16.0,87,0.00,,,0.01,weatherlink.com 1.10,2013-03-06 10:14:00,
2013-03-06 04:29:00,25.3,22.0,30.41,West,277,4.0,15.0,87,0.00,,,0.01,weatherlink.com 1.10,2013-03-06 10:29:00,
2013-03-06 04:44:00,25.2,22.0,30.41,NW,310,7.0,15.0,87,0.00,,,0.01,weatherlink.com 1.10,2013-03-06 10:44:00,
2013-03-06 05:00:00,25.2,22.0,30.42,WNW,287,6.0,16.0,87,0.00,,,0.00,weatherlink.com 1.10,2013-03-06 11:00:00,
2013-03-06 05:15:00,25.1,22.0,30.43,WNW,298,11.0,18.0,86,0.00,,,0.00,weatherlink.com 1.10,2013-03-06 11:15:00,
2013-03-06 05:30:00,25.0,21.0,30.43,NW,316,13.0,20.0,86,0.00,,,0.00,weatherlink.com 1.10,2013-03-06 11:30:00,
2013-03-06 05:45:00,25.0,21.0,30.43,WNW,295,8.0,14.0,86,0.00,,,0.00,weatherlink.com 1.10,2013-03-06 11:45:00,
2013-03-06 06:00:00,25.0,21.0,30.43,WNW,290,9.0,12.0,86,0.00,,,0.00,weatherlink.com 1.10,2013-03-06 12:00:00,
2013-03-06 06:15:00,25.0,21.0,30.43,NW,323,14.0,15.0,86,0.00,,,0.00,weatherlink.com 1.10,2013-03-06 12:15:00,
2013-03-06 06:30:00,25.1,22.0,30.44,West,269,4.0,12.0,86,0.00,,,0.00,weatherlink.com 1.10,2013-03-06 12:30:00,
2013-03-06 06:45:00,25.1,22.0,30.45,WNW,294,6.0,15.0,86,0.00,,,0.00,weatherlink.com 1.10,2013-03-06 12:45:00,
2013-03-06 07:00:00,25.1,22.0,30.45,NW,322,10.0,16.0,86,0.00,,,0.00,weatherlink.com 1.10,2013-03-06 13:00:00,
2013-03-06 07:15:00,25.1,22.0,30.45,NW,313,8.0,13.0,86,0.00,,,0.00,weatherlink.com 1.10,2013-03-06 13:15:00,
2013-03-06 07:30:00,25.0,21.0,30.46,NW,325,8.0,16.0,85,0.00,,,0.00,weatherlink.com 1.10,2013-03-06 13:30:00,
2013-03-06 07:45:00,24.9,21.0,30.46,WNW,298,11.0,14.0,85,0.00,,,0.00,weatherlink.com 1.10,2013-03-06 13:45:00,
2013-03-06 08:00:00,24.8,21.0,30.47,WNW,300,14.0,16.0,85,0.00,,,0.00,weatherlink.com 1.10,2013-03-06 14:00:00,
2013-03-06 08:15:00,25.0,21.0,30.48,NW,309,12.0,19.0,84,0.00,,,0.00,weatherlink.com 1.10,2013-03-06 14:15:00,
2013-03-06 08:30:00,24.9,20.0,30.48,WNW,303,12.0,19.0,83,0.00,,,0.00,weatherlink.com 1.10,2013-03-06 14:30:00,
2013-03-06 08:45:00,24.8,20.0,30.48,West,275,11.0,18.0,83,0.00,,,0.00,weatherlink.com 1.10,2013-03-06 14:45:00,
2013-03-06 09:00:00,24.7,20.0,30.48,NW,320,2.0,16.0,83,0.00,,,0.00,weatherlink.com 1.10,2013-03-06 15:00:00,
2013-03-06 09:15:00,24.8,20.0,30.48,West,268,4.0,20.0,82,0.00,,,0.00,weatherlink.com 1.10,2013-03-06 15:15:00,
2013-03-06 09:30:00,24.9,20.0,30.49,West,267,15.0,15.0,82,0.00,,,0.00,weatherlink.com 1.10,2013-03-06 15:30:00,
2013-03-06 09:45:00,25.0,20.0,30.49,NNW,340,8.0,18.0,82,0.00,,,0.00,weatherlink.com 1.10,2013-03-06 15:45:00,
2013-03-06 10:00:00,25.3,20.0,30.49,NNW,333,8.0,16.0,81,0.00,,,0.00,weatherlink.com 1.10,2013-03-06 16:00:00,
2013-03-06 10:15:00,25.1,20.0,30.49,NNW,340,15.0,19.0,80,0.00,,,0.00,weatherlink.com 1.10,2013-03-06 16:15:00,
2013-03-06 10:30:00,25.3,20.0,30.49,NW,308,13.0,16.0,80,0.00,,,0.00,weatherlink.com 1.10,2013-03-06 16:30:00,
2013-03-06 10:45:00,25.1,19.0,30.49,NNW,343,7.0,20.0,78,0.00,,,0.00,weatherlink.com 1.10,2013-03-06 16:45:00,
2013-03-06 11:00:00,25.3,19.0,30.49,NW,318,12.0,18.0,78,0.00,,,0.00,weatherlink.com 1.10,2013-03-06 17:00:00,
2013-03-06 11:15:00,25.6,20.0,30.49,North,350,7.0,16.0,78,0.00,,,0.00,weatherlink.com 1.10,2013-03-06 17:15:00,
2013-03-06 11:30:00,25.9,19.0,30.49,North,355,10.0,16.0,76,0.00,,,0.00,weatherlink.com 1.10,2013-03-06 17:30:00,
2013-03-06 11:45:00,25.9,19.0,30.48,NW,315,7.0,15.0,76,0.00,,,0.00,weatherlink.com 1.10,2013-03-06 17:45:00,
2013-03-06 12:00:00,26.2,19.0,30.48,WNW,282,8.0,15.0,75,0.00,,,0.00,weatherlink.com 1.10,2013-03-06 18:00:00,
2013-03-06 12:15:00,26.7,19.0,30.48,NNW,348,7.0,14.0,74,0.00,,,0.00,weatherlink.com 1.10,2013-03-06 18:15:00,
2013-03-06 12:30:00,27.5,20.0,30.47,WNW,289,8.0,13.0,72,0.00,,,0.00,weatherlink.com 1.10,2013-03-06 18:30:00,
2013-03-06 12:45:00,28.2,21.0,30.47,WNW,282,5.0,13.0,74,0.00,,,0.00,weatherlink.com 1.10,2013-03-06 18:45:00,
2013-03-06 13:00:00,28.0,20.0,30.47,NW,313,4.0,15.0,72,0.00,,,0.00,weatherlink.com 1.10,2013-03-06 19:00:00,
2013-03-06 13:16:00,28.1,20.0,30.46,West,278,11.0,12.0,72,0.01,,,0.01,weatherlink.com 1.10,2013-03-06 19:16:00,
2013-03-06 13:31:00,28.4,20.0,30.45,WNW,286,4.0,15.0,70,0.02,,,0.02,weatherlink.com 1.10,2013-03-06 19:31:00,
2013-03-06 13:46:00,29.5,20.0,30.45,NNE,15,6.0,12.0,69,0.03,,,0.03,weatherlink.com 1.10,2013-03-06 19:46:00,
2013-03-06 14:01:00,30.1,20.0,30.45,West,276,4.0,13.0,66,0.03,,,0.03,weatherlink.com 1.10,2013-03-06 20:01:00,
2013-03-06 14:16:00,29.9,20.0,30.45,WNW,303,2.0,15.0,66,0.03,,,0.04,weatherlink.com 1.10,2013-03-06 20:16:00,
2013-03-06 14:31:00,30.0,20.0,30.44,North,355,7.0,15.0,66,0.02,,,0.04,weatherlink.com 1.10,2013-03-06 20:31:00,
2013-03-06 14:46:00,30.6,21.0,30.44,North,360,10.0,16.0,67,0.02,,,0.05,weatherlink.com 1.10,2013-03-06 20:46:00,
2013-03-06 15:01:00,30.5,20.0,30.44,NNW,342,9.0,19.0,66,0.02,,,0.05,weatherlink.com 1.10,2013-03-06 21:01:00,
2013-03-06 15:16:00,30.6,20.0,30.44,NW,319,10.0,15.0,64,0.01,,,0.05,weatherlink.com 1.10,2013-03-06 21:16:00,
2013-03-06 15:31:00,30.4,20.0,30.43,NNW,342,8.0,19.0,65,0.01,,,0.05,weatherlink.com 1.10,2013-03-06 21:31:00,
2013-03-06 15:46:00,30.6,20.0,30.43,NNW,342,7.0,16.0,65,0.00,,,0.05,weatherlink.com 1.10,2013-03-06 21:46:00,
2013-03-06 16:01:00,31.0,20.0,30.43,NNW,336,9.0,14.0,65,0.00,,,0.05,weatherlink.com 1.10,2013-03-06 22:01:00,
2013-03-06 16:16:00,31.2,20.0,30.43,NW,307,7.0,12.0,64,0.00,,,0.05,weatherlink.com 1.10,2013-03-06 22:16:00,
2013-03-06 16:31:00,31.2,20.0,30.43,WNW,286,6.0,12.0,64,0.00,,,0.05,weatherlink.com 1.10,2013-03-06 22:31:00,
2013-03-06 16:46:00,31.3,20.0,30.43,WNW,298,0.0,11.0,63,0.00,,,0.05,weatherlink.com 1.10,2013-03-06 22:46:00,
2013-03-06 17:01:00,31.5,20.0,30.43,West,275,7.0,9.0,63,0.00,,,0.05,weatherlink.com 1.10,2013-03-06 23:01:00,
2013-03-06 17:16:00,31.3,20.0,30.43,West,266,1.0,8.0,64,0.00,,,0.05,weatherlink.com 1.10,2013-03-06 23:16:00,
2013-03-06 17:31:00,30.8,19.0,30.44,West,279,1.0,11.0,63,0.00,,,0.05,weatherlink.com 1.10,2013-03-06 23:31:00,
2013-03-06 17:46:00,30.5,20.0,30.45,NW,304,2.0,8.0,64,0.00,,,0.05,weatherlink.com 1.10,2013-03-06 23:46:00,
2013-03-06 18:16:00,29.2,19.0,30.45,WNW,299,6.0,8.0,66,0.00,,,0.05,weatherlink.com 1.10,2013-03-07 00:16:00,
2013-03-06 18:31:00,28.8,19.0,30.45,NW,304,6.0,8.0,67,0.00,,,0.05,weatherlink.com 1.10,2013-03-07 00:31:00,
2013-03-06 18:46:00,-999.0,-99.9,30.45,North,-999,-999.0,-999.0,-999,0.00,,,0.05,weatherlink.com 1.10,2013-03-07 00:46:00,
2013-03-06 19:01:00,-999.0,-99.9,30.45,North,-999,-999.0,-999.0,-999,0.00,,,0.05,weatherlink.com 1.10,2013-03-07 01:01:00,
2013-03-06 19:16:00,-999.0,-99.9,30.45,North,-999,-999.0,-999.0,-999,0.00,,,0.05,weatherlink.com 1.10,2013-03-07 01:16:00,
2013-03-06 19:31:00,-999.0,-99.9,30.45,North,-999,-999.0,-999.0,-999,0.00,,,0.05,weatherlink.com 1.10,2013-03-07 01:31:00,
2013-03-06 19:46:00,-999.0,-99.9,30.46,North,-999,-999.0,-999.0,-999,0.00,,,0.05,weatherlink.com 1.10,2013-03-07 01:46:00,
2013-03-06 20:01:00,-999.0,-99.9,30.46,North,-999,-999.0,-999.0,-999,0.00,,,0.05,weatherlink.com 1.10,2013-03-07 02:01:00,
2013-03-06 20:16:00,-999.0,-99.9,30.46,North,-999,-999.0,-999.0,-999,0.00,,,0.05,weatherlink.com 1.10,2013-03-07 02:16:00,
2013-03-06 20:31:00,25.6,18.0,30.46,NW,304,0.0,0.0,74,0.00,,,0.05,weatherlink.com 1.10,2013-03-07 02:31:00,
2013-03-06 20:46:00,25.0,18.0,30.46,NW,304,0.0,0.0,75,0.00,,,0.05,weatherlink.com 1.10,2013-03-07 02:46:00,
2013-03-06 21:01:00,24.6,18.0,30.47,NW,304,0.0,0.0,76,0.00,,,0.05,weatherlink.com 1.10,2013-03-07 03:01:00,
2013-03-06 21:16:00,23.9,18.0,30.47,NW,304,0.0,0.0,77,0.00,,,0.05,weatherlink.com 1.10,2013-03-07 03:16:00,
2013-03-06 21:31:00,23.4,17.0,30.47,NW,304,0.0,2.0,77,0.00,,,0.05,weatherlink.com 1.10,2013-03-07 03:31:00,
2013-03-06 21:47:00,22.8,17.0,30.47,NW,304,0.0,0.0,78,0.00,,,0.05,weatherlink.com 1.10,2013-03-07 03:47:00,
2013-03-06 22:02:00,22.6,17.0,30.47,NW,304,0.0,0.0,80,0.00,,,0.05,weatherlink.com 1.10,2013-03-07 04:02:00,
2013-03-06 22:17:00,22.4,17.0,30.47,NW,304,0.0,0.0,80,0.00,,,0.05,weatherlink.com 1.10,2013-03-07 04:17:00,
2013-03-06 22:32:00,22.3,17.0,30.47,NW,304,0.0,2.0,80,0.00,,,0.05,weatherlink.com 1.10,2013-03-07 04:32:00,
2013-03-06 22:47:00,21.9,17.0,30.47,NW,304,4.0,5.0,80,0.00,,,0.05,weatherlink.com 1.10,2013-03-07 04:47:00,
2013-03-06 23:02:00,21.4,16.0,30.47,NW,304,2.0,5.0,81,0.00,,,0.05,weatherlink.com 1.10,2013-03-07 05:02:00,
2013-03-06 23:17:00,20.9,16.0,30.47,NW,304,1.0,4.0,82,0.00,,,0.05,weatherlink.com 1.10,2013-03-07 05:17:00,
2013-03-06 23:32:00,20.1,16.0,30.48,NW,304,0.0,6.0,83,0.00,,,0.05,weatherlink.com 1.10,2013-03-07 05:32:00,
2013-03-06 23:47:00,19.7,16.0,30.48,NW,304,0.0,5.0,84,0.00,,,0.05,weatherlink.com 1.10,2013-03-07 05:47:00,